SCP
0 0 0 0 0 0 0 0 0 0 0 0 0 0 0 0 0 0 0 0 0 0 0 0 0 0 0 0 0 0 0 0 0 0 0 0 0 0 0 0 0 0 0 0 0 0 0 0 0
0 0 0 0 0 0 0 0 0 0 0 0 0 0 0 0 0 0 0 0 0 0 0 0 0 0 0 0 0 0 0 0 0 0 0 0 0 0 0 0 0 0 0 0 0 0 0 0 0
0 0 0 0 0 0 0 0 0 0 0 0 0 0 0 0 0 0 0 0 0 0 0 0 0 0 0 0 0 0 0 0 0 0 0 0 0 0 0 0 0 0 0 0 0 0 0 0 0
0 0 0 0 0 0 0 0 0 0 0 0 0 0 0 0 0 0 0 0 0 0 0 0 0 0 0 0 0 0 0 0 0 0 0 0 0 0 0 0 0 0 0 0 0 0 0 0 0
0 0 0 0 0 0 0 0 0 0 0 0 0 0 0 0 0 0 0 0 0 0 0 0 0 0 0 0 0 0 0 0 0 0 0 0 0 0 0 0 0 0 0 0 0 0 0 0 0
0 0 0 0 0 0 0 0 0 0 0 0 0 0 0 0 0 0 0 0 0 0 0 0 0 0 0 0 0 0 0 0 0 0 0 0 0 0 0 0 0 0 0 0 0 0 0 0 0
0 0 0 0 0 0 0 0 0 0 0 0 0 0 0 0 0 0 0 0 0 0 0 0 0 0 0 0 0 0 0 0 0 0 0 0 0 0 0 0 0 0 0 0 0 0 0 0 0
0 0 0 0 0 0 0 0 0 0 0 0 0 0 0 0 0 0 0 0 0 0 0 0 0 0 0 0 0 0 0 0 0 0 0 0 0 0 0 0 0 0 0 0 0 0 0 0 0
0 0 0 0 0 0 0 0 0 0 0 0 0 0 0 0 0 0 0 0 0 0 0 0 0 0 0 0 0 0 0 0 0 0 0 0 0 0 0 0 0 0 0 0 0 0 0 0 0
0 0 0 0 0 0 0 0 0 0 0 0 0 0 0 0 0 0 0 0 0 0 0 0 0 0 0 0 0 0 0 0 0 0 0 0 0 0 0 0 0 0 0 0 0 0 0 0 0
0 0 0 0 0 0 0 0 0 0 0 0 0 0 0 0 0 0 0 0 0 0 0 0 0 0 0 0 0 0 0 0 0 0 0 0 0 0 0 0 0 0 0 0 0 0 0 0 0
0 0 0 0 0 0 0 0 0 0 0 0 0 0 0 0 0 0 0 0 0 0 0 0 0 0 0 0 0 0 0 0 0 0 0 0 0 0 0 0 0 0 0 0 0 0 0 0 0
0 0 0 0 0 0 0 0 0 0 0 0 0 0 0 0 0 0 0 0 0 0 0 0 0 0 0 0 0 0 0 0 0 0 0 0 0 0 0 0 0 0 0 0 0 0 0 0 0
0 0 0 0 0 0 0 0 0 0 0 0 0 0 0 0 0 0 0 0 0 0 0 0 0 0 0 0 0 0 0 0 0 0 0 0 0 0 0 0 0 0 0 0 0 0 0 0 0
0 0 0 0 0 0 0 0 0 0 0 0 0 0 0 0 0 0 0 0 0 0 0 0 0 0 0 0 0 0 0 0 0 0 0 0 0 0 0 0 0 0 0 0 0 0 0 0 0
0 0 0 0 0 0 0 0 0 0 0 0 0 0 0 0 0 0 0 0 0 0 0 0 0 0 0 0 0 0 0 0 0 0 0 0 0 0 0 0 0 0 0 0 0 0 0 0 0
0 0 0 0 0 0 0 0 0 0 0 0 0 0 0 0 0 0 0 0 0 0 0 0 0 0 0 0 0 0 0 -0 -0 0 0 0 0 0 0 0 0 0 0 0 0 0 0 0 0
0 0 0 0 0 0 0 0 0 0 0 0 0 0 0 0 0 0 0 0 0 0 0 0 0 0 0 0 0 0 0 0 0 0 0 0 0 0 0 0 0 0 0 0 0 0 0 0 0
0 0 0 0 0 0 0 0 0 0 0 0 0 0 0 0 0 0 0 0 0 0 0 0 0 0 0 0 0 0 0 0 -0 -0 -0 -0 0 0 0 0 0 0 0 0 0 0 0 0 0
0 0 0 0 0 0 0 0 0 0 0 0 0 0 0 0 0 0 0 0 0 0 0 0 0 0 0 0 0 0 0 0 -0 -0 -0 -0 0 0 0 0 0 0 0 0 0 0 0 0 0
0 0 0 0 0 0 0 0 0 0 0 0 0 0 0 0 0 0 0 0 0 0 0 0 0 0 0 0 0 0 0 -0 -0 -0 0 0 0 0 0 0 0 0 0 0 0 0 0 0 0
0 0 0 0 0 0 0 0 0 0 0 0 0 0 0 0 0 0 0 0 0 0 0 0 0 0 0 0 0 0 0 0 0 0 0 0 0 0 0 0 0 0 0 0 0 0 0 0 0
0 0 0 0 0 0 0 0 0 0 0 0 0 0 0 0 0 0 0 0 0 0 0 0 0 0 0 0 0 0 0 0 0 0 0 0 0 0 0 0 0 0 0 0 0 0 0 0 0
0 0 0 0 0 0 0 0 0 0 0 0 0 0 0 0 0 0 0 0 0 0 0 0 0 0 0 0 0 0 0 0 0 0 0 0 0 0 0 0 0 0 0 0 0 0 0 0 0
0 0 0 0 0 0 0 0 0 0 0 0 0 0 0 0 0 0 0 0 0 0 0 0 0 0 0 0 0 0 0 0 0 0 0 0 0 0 0 0 0 0 0 0 0 0 0 0 0
0 0 0 0 0 0 0 0 0 0 0 0 0 0 0 0 0 0 0 0 0 0 0 0 0 0 0 0 0 0 0 0 0 0 0 0 0 0 0 0 0 0 0 0 0 0 0 0 0
0 0 0 0 0 0 0 0 0 0 0 0 0 0 0 0 0 0 0 0 0 0 0 0 0 0 0 0 0 0 0 0 0 0 0 0 0 0 0 0 0 0 0 0 0 0 0 0 0
0 0 0 0 0 0 0 0 0 0 0 0 0 0 0 0 0 0 0 0 0 0 0 0 0 0 0 0 0 0 0 0 0 0 0 0 0 0 0 0 0 0 0 0 0 0 0 0 0
0 0 0 0 0 0 0 0 0 0 0 0 0 0 0 0 0 0 0 0 0 0 0 0 0 0 0 0 0 0 0 0 0 0 0 0 0 0 0 0 0 0 0 0 0 0 0 0 0
0 0 0 0 0 0 0 0 0 0 0 0 0 0 0 0 0 0 0 0 0 0 0 0 0 0 0 0 0 0 0 0 0 0 0 0 0 0 0 0 0 0 0 0 0 0 0 0 0
Wind_Speed
3 1 2 3 2 3 6 5 4 5 5 6 6 5 6 6 5 6 4 4 5 5 6 7 11 10 9 9 8 7 8 8 8 9 9 10 10 10 10 10 10 10 10 10 10 11 11 10 10
0 1 2 2 1 5 6 5 6 6 6 5 5 6 6 7 6 6 4 4 5 6 6 9 10 10 10 9 9 8 7 8 8 9 9 10 10 11 10 10 11 11 11 11 11 11 11 11 10
1 1 1 0 3 4 6 6 7 7 5 3 4 5 5 6 5 4 4 3 5 6 7 9 9 10 10 10 11 11 10 9 9 10 10 10 11 11 11 11 11 11 11 11 11 11 11 11 11
2 2 1 3 8 6 6 7 7 7 6 4 4 6 6 6 4 5 5 4 5 6 7 9 9 10 11 11 12 13 13 13 11 11 11 11 11 11 12 12 11 11 11 11 11 11 11 10 10
2 1 4 6 7 6 5 5 4 5 5 6 5 7 7 5 5 6 5 5 5 6 7 8 9 10 10 11 12 13 13 13 12 12 13 13 12 12 12 12 12 11 11 11 11 10 10 10 10
1 2 4 7 8 6 5 4 4 6 6 5 5 6 6 5 5 5 5 5 6 6 6 7 9 9 10 11 11 12 12 13 13 13 13 13 12 13 12 12 12 12 11 11 11 11 11 11 10
1 2 5 8 8 6 5 4 4 5 5 4 3 5 6 5 4 4 6 6 6 6 6 6 7 8 9 10 11 11 11 12 12 12 12 13 13 12 12 12 11 11 11 11 11 11 11 12 11
0 3 6 6 7 6 6 4 4 3 5 4 1 3 5 5 4 5 5 6 6 6 6 6 6 6 6 8 10 11 11 11 11 11 11 11 11 11 11 11 12 12 11 12 12 12 12 12 12
2 4 5 6 6 6 6 5 4 3 6 5 4 4 6 7 6 6 5 6 6 6 6 5 6 6 6 7 8 8 9 9 7 9 9 7 7 8 8 13 12 12 12 12 12 12 11 9 10
2 3 5 4 4 6 6 5 5 5 6 5 6 7 8 8 6 6 5 5 5 5 5 5 5 5 6 5 5 4 5 5 5 6 6 6 6 7 7 10 11 11 10 10 10 9 6 4 5
2 3 5 5 5 6 6 5 4 4 3 3 7 9 9 8 6 5 5 5 5 5 5 4 4 5 5 4 4 3 3 4 5 6 6 5 5 5 5 4 5 6 6 6 6 4 5 5 5
5 5 4 5 5 5 5 5 4 3 3 4 7 9 9 8 6 5 5 5 5 5 5 4 4 4 5 4 4 3 3 3 4 5 6 5 4 4 5 4 5 4 4 5 4 4 6 6 6
6 5 5 5 5 5 5 4 4 4 4 6 8 8 8 7 6 5 5 4 5 4 4 4 4 4 4 4 3 3 4 3 4 4 4 5 4 4 4 4 4 5 4 4 4 5 6 6 6
6 7 6 5 5 4 5 4 3 4 6 8 8 8 7 6 5 5 4 4 4 4 4 4 4 4 4 4 3 3 3 3 3 4 5 6 4 4 4 4 4 4 4 4 4 5 5 5 5
7 7 6 4 3 4 4 3 4 5 7 8 8 8 7 5 5 4 4 3 3 4 4 4 4 4 4 4 4 4 3 3 3 3 4 5 5 4 4 4 4 4 4 4 4 5 4 4 4
7 6 5 4 4 3 5 3 5 7 8 8 7 7 6 5 5 4 4 3 3 3 4 5 4 4 4 4 4 3 3 4 3 3 3 4 4 4 4 3 3 4 3 3 3 3 3 4 4
7 6 5 5 4 4 5 3 5 8 8 8 7 7 7 6 5 4 4 3 3 3 4 5 5 4 4 4 4 4 4 3 3 3 3 3 4 4 4 3 3 3 3 3 3 3 3 3 3
7 6 5 5 5 6 6 4 5 8 8 8 7 7 7 6 6 5 4 4 3 4 4 5 5 4 4 3 3 3 3 3 3 3 3 4 3 4 4 3 3 3 2 2 3 3 2 3 2
5 6 5 3 4 6 6 5 4 6 8 8 7 7 7 7 6 5 5 5 4 4 4 4 4 4 3 2 2 2 2 2 2 2 3 3 4 4 4 2 3 2 2 3 3 2 2 2 2
7 7 5 3 3 5 5 5 5 6 7 7 7 8 7 7 7 6 6 5 5 5 4 4 4 4 3 2 1 1 2 2 2 2 2 3 3 3 3 3 2 2 2 2 2 2 1 1 2
8 7 5 4 3 5 5 6 6 6 7 6 6 6 7 7 7 7 7 6 6 5 5 4 4 4 4 3 2 2 2 2 2 2 2 2 2 2 2 2 2 2 2 1 1 1 1 1 2
6 4 5 5 6 4 6 5 5 6 6 6 6 6 6 6 6 6 6 6 6 5 5 5 5 4 4 3 2 2 1 1 1 1 1 1 2 2 2 1 1 1 1 1 1 1 1 1 1
3 4 5 6 6 6 6 7 3 5 6 6 6 6 6 6 6 6 6 6 6 5 5 4 5 4 3 3 2 2 1 1 1 0 1 1 1 1 1 1 1 1 1 1 1 1 2 1 2
5 6 5 5 6 8 7 7 3 3 4 4 5 6 6 6 6 6 6 6 5 5 5 4 5 4 3 3 3 2 2 1 1 0 0 0 0 0 1 1 1 1 1 1 1 1 2 2 2
7 6 5 6 6 5 4 7 3 2 0 3 4 4 5 6 6 6 6 6 5 5 5 5 5 4 4 3 3 3 2 2 1 1 1 1 1 0 1 1 1 1 1 1 1 1 2 2 2
8 8 5 4 4 3 5 7 1 3 1 1 2 3 3 5 5 6 6 6 6 6 5 5 5 4 4 4 3 3 2 2 1 1 1 1 1 1 1 1 1 1 1 1 1 2 2 2 2
6 7 4 5 5 5 5 3 3 2 1 1 2 3 3 3 5 5 6 6 6 6 6 5 5 4 4 4 4 3 2 2 2 2 1 1 1 1 1 1 2 1 1 2 1 1 2 2 3
4 4 4 6 5 6 5 6 3 3 3 2 2 2 2 3 3 4 5 5 5 5 5 5 5 5 4 3 3 2 2 2 2 2 1 1 1 1 2 2 2 1 1 1 1 2 2 2 2
5 6 5 5 5 6 4 1 3 0 2 3 3 2 1 2 3 3 4 4 4 4 4 5 4 4 4 3 3 2 2 2 2 2 2 2 2 2 2 2 2 2 2 2 2 2 2 2 2
5 6 7 6 6 7 6 0 4 2 1 2 2 2 2 2 2 3 3 4 4 4 4 4 4 4 4 3 3 3 2 2 2 2 2 2 2 2 2 2 2 2 2 2 2 2 2 2 2
Wind_Direction
177 187 227 237 203 103 85 83 87 97 78 64 59 62 64 49 32 64 61 36 29 36 35 40 46 57 59 57 54 58 65 67 66 69 71 77 82 85 84 84 82 82 79 75 75 76 75 76 78
177 216 234 244 188 117 97 96 93 81 90 98 84 76 75 69 56 79 77 47 41 44 43 47 45 51 54 54 50 52 66 71 67 70 72 76 78 81 81 82 81 79 78 77 75 76 75 74 74
156 261 285 143 88 88 104 102 99 96 96 87 85 65 59 69 68 75 71 64 54 50 49 54 43 52 53 52 51 54 65 77 74 70 72 74 77 77 78 80 79 78 78 79 77 74 74 73 73
220 206 163 101 94 79 98 111 111 113 100 82 98 91 83 57 52 78 92 78 65 58 56 63 54 57 55 55 54 56 65 72 71 70 70 70 74 78 78 78 77 77 76 75 75 74 73 74 72
231 200 127 110 99 94 102 112 115 105 99 95 99 100 91 67 74 91 92 79 69 67 64 71 64 60 58 58 57 59 64 67 69 70 70 70 73 79 77 76 75 75 75 75 75 74 73 72 72
180 179 138 121 114 110 116 125 118 104 101 105 112 110 92 86 89 88 89 78 69 69 71 80 77 64 61 60 59 63 66 68 69 69 69 70 72 73 72 74 73 72 74 75 75 73 72 71 70
144 124 118 122 126 125 121 117 109 110 107 95 107 113 115 108 91 95 90 80 71 69 71 72 80 82 75 66 63 65 66 68 70 71 69 70 71 71 71 71 71 70 70 71 72 71 69 69 67
85 138 132 133 136 123 125 123 100 100 97 95 110 118 124 122 121 112 96 89 81 72 70 72 71 70 77 82 73 67 67 68 72 73 71 72 76 75 72 73 70 68 68 68 68 71 70 68 67
212 160 141 139 141 126 137 134 113 99 109 103 83 74 100 123 132 120 107 94 84 74 69 69 69 67 67 71 78 77 76 72 83 84 79 74 72 72 73 65 66 67 68 68 68 70 70 72 76
186 146 122 118 128 127 135 130 137 143 129 121 115 104 114 130 133 123 110 96 87 82 76 71 68 68 68 68 76 68 69 71 68 70 74 69 68 66 68 72 67 67 68 74 70 72 77 64 72
130 123 121 124 125 134 134 126 137 150 133 129 137 136 134 134 129 117 104 95 87 85 77 70 70 72 72 72 69 66 63 65 65 62 68 70 72 77 71 70 77 71 68 67 75 76 63 60 58
124 109 127 132 137 142 136 134 127 113 82 103 126 138 139 137 127 118 110 98 95 85 79 74 71 77 75 77 74 74 73 67 66 60 61 63 64 63 62 60 56 56 59 59 58 60 63 62 62
134 126 119 126 130 131 126 131 125 113 108 121 127 135 137 135 131 121 111 106 98 92 87 78 78 76 79 78 75 77 73 69 73 64 63 66 65 65 66 64 59 58 60 64 62 64 60 58 55
130 135 133 136 139 146 140 138 154 134 139 140 142 144 145 140 135 126 122 114 104 96 88 83 80 76 79 84 83 74 71 74 73 67 61 63 62 61 60 66 63 60 56 58 63 66 62 59 57
144 144 145 148 154 152 165 164 168 149 157 156 155 150 149 148 145 139 129 122 110 102 99 94 92 87 84 78 73 72 70 67 68 63 58 60 57 57 62 59 65 63 62 64 63 66 60 61 62
167 182 179 160 173 182 218 189 149 161 171 170 167 160 160 161 163 153 140 134 121 116 107 104 104 100 89 82 79 76 72 71 70 64 54 59 61 59 62 57 59 60 57 59 66 60 63 59 51
191 196 191 172 178 187 215 205 155 173 184 182 178 174 173 170 172 164 151 147 137 130 119 115 110 105 97 91 90 82 78 72 68 68 59 53 57 58 69 62 60 62 58 56 60 57 50 57 52
189 197 200 195 169 194 209 219 177 181 196 194 188 185 183 181 177 172 162 157 149 139 129 123 119 113 105 101 98 92 81 74 66 63 62 58 60 58 60 64 60 55 56 58 61 65 56 52 46
209 211 207 192 172 204 219 228 216 190 202 205 199 195 193 188 178 172 169 162 158 150 144 134 131 125 121 115 110 100 94 83 72 62 60 64 64 63 65 55 64 54 54 53 63 63 67 58 37
207 211 204 174 174 216 227 240 226 208 211 213 212 203 199 193 183 176 175 169 170 161 157 150 146 140 134 121 111 107 101 89 70 66 63 59 68 69 67 61 58 62 63 58 61 61 32 45 6
216 224 216 208 187 207 234 228 211 201 208 209 217 215 205 200 195 182 180 177 175 174 172 167 162 154 148 138 123 120 118 124 111 93 70 51 53 65 64 59 59 59 60 61 39 35 9 5 14
221 215 217 211 221 217 229 249 202 192 197 207 208 203 203 198 196 188 181 180 181 182 182 177 168 161 152 150 155 160 160 136 86 78 78 69 54 50 49 48 53 59 37 35 11 23 357 335 343
221 182 197 218 240 246 224 252 205 181 213 216 208 201 198 196 196 192 187 186 183 176 181 182 173 165 159 162 155 184 162 122 105 110 86 56 61 36 24 17 39 20 8 5 4 356 333 328 330
173 172 179 213 236 243 227 238 239 192 225 212 200 200 195 191 188 191 186 181 176 168 171 178 178 169 170 178 177 188 170 165 163 188 229 255 114 10 21 352 338 328 333 331 331 329 315 320 326
204 208 212 211 215 233 190 233 247 78 259 236 211 199 191 185 182 180 180 178 173 168 168 174 176 177 178 186 190 195 192 201 202 216 238 268 260 278 317 306 303 313 318 321 310 304 307 302 303
217 227 241 251 242 231 195 228 154 78 46 239 191 184 178 179 178 177 179 178 174 173 174 175 177 180 184 198 202 204 196 219 231 246 255 266 292 297 301 300 305 313 313 306 311 302 310 310 299
211 220 249 272 270 261 216 209 189 128 151 128 143 156 170 176 177 177 176 175 174 176 179 180 179 180 188 204 210 210 209 222 240 252 252 259 274 292 289 284 289 289 295 297 295 294 304 311 309
261 204 204 230 246 251 232 228 230 188 211 191 182 188 183 177 168 169 171 173 174 176 179 177 181 184 185 195 206 214 218 221 235 242 249 259 273 282 270 265 271 273 274 277 283 294 310 305 318
186 195 222 236 255 266 259 197 55 73 196 206 203 189 176 171 165 160 164 168 169 169 172 174 180 182 180 187 193 194 202 211 216 231 247 257 269 269 264 257 259 265 267 264 261 275 289 300 311
242 230 223 237 236 246 268 273 87 76 93 193 189 161 138 137 140 145 150 157 164 166 168 173 181 182 183 187 191 194 192 201 211 227 240 248 263 266 263 261 261 270 278 277 275 276 285 292 303